Puerto Barrios, Guatemala

5:45 PM CST on June 28, 2017 (GMT -0600)
Puerto Barrios

Weather History for MGPB - October, 2012

Change the Weather History Date:

Saturday, October 20, 2012

  Actual Average Record
Temperature  
Mean Temperature 80 °F -  
Max Temperature 87 °F 82 °F 89 °F (2002)
Min Temperature 73 °F 70 °F 62 °F (1997)
Cooling Degree Days 15    
Growing Degree Days 30 (Base 50)    
Moisture  
Dew Point 75 °F    
Average Humidity 87    
Maximum Humidity 100    
Minimum Humidity 66    
Precipitation  
Precipitation 0.01 in - - ()
Sea Level Pressure  
Sea Level Pressure 29.83 in    
Wind  
Wind Speed 1 mph ()    
Max Wind Speed 7 mph    
Max Gust Speed -    
Visibility 5.9 miles    
Events Rain , Thunderstorm    
Averages and records for this station are not official NWS values.
T = Trace of Precipitation, MM = Missing Value Source: Averaged Metar Reports

Daily Weather History Graph

Daily Weather History Graph

Search for Another Location

Airport or City:

Trip Planner

Search our weather history database for the weather conditions in past years. The results will help you decide how hot, cold, wet, or windy it might be!

Date:

Astronomy

Oct. 20, 2012 Rise Set
Actual Time 5:47 AM CST 5:30 PM CST
Civil Twilight 5:25 AM CST 5:52 PM CST
Nautical Twilight 5:00 AM CST 6:17 PM CST
Astronomical Twilight 4:35 AM CST 6:42 PM CST
Moon 10:57 AM CST (10/20) 10:38 PM CST (10/20)
Length of Visible Light 12h 26m
Length of Day
11h 42m
Waxing Crescent, 35% of the Moon is Illuminated
Oct 20
Waxing Crescent
Oct 21
First Quarter
Oct 29
Full
Nov 6
Last Quarter
Nov 13
New

Hourly Weather History & Observations

Time (CST) Temp. Heat Index Dew Point Humidity Pressure Visibility Wind Dir Wind Speed Gust Speed Precip Events Conditions
12:00 AM 78.8 °F - 77.0 °F 94% 29.86 in 6.2 mi Calm Calm - N/A   Scattered Clouds
1:00 AM 77.0 °F - 75.2 °F 94% 29.83 in 6.2 mi Calm Calm - N/A   Partly Cloudy
2:00 AM 77.0 °F - 75.2 °F 94% 29.83 in 6.2 mi Calm Calm - N/A   Partly Cloudy
3:00 AM 75.2 °F - 75.2 °F 100% 29.83 in 6.2 mi Calm Calm - N/A   Scattered Clouds
4:00 AM 75.2 °F - 75.2 °F 100% 29.83 in 6.2 mi Calm Calm - N/A   Scattered Clouds
5:00 AM 75.2 °F - 73.4 °F 94% 29.83 in 6.2 mi Calm Calm - N/A   Scattered Clouds
6:00 AM 76 °F - 74 °F 94% 29.85 in 25 mi NNE 4.6 mph - -   Partly Cloudy
6:00 AM 75.2 °F - 75.2 °F 100% 29.83 in 6.2 mi NNE 4.6 mph - N/A   Scattered Clouds
7:00 AM 78.8 °F - 77.0 °F 94% 29.86 in 6.2 mi Calm Calm - N/A   Scattered Clouds
8:00 AM 80.6 °F 87.1 °F 77.0 °F 89% 29.89 in 6.2 mi Calm Calm - N/A   Scattered Clouds
9:00 AM 82.4 °F 89.5 °F 75.2 °F 79% 29.89 in 6.2 mi Calm Calm - N/A   Scattered Clouds
11:00 AM - - - N/A% 29.86 in 6.2 mi East 4.6 mph - N/A   Scattered Clouds
12:00 PM 82 °F - 76 °F 76% 29.86 in 25 mi Calm Calm - -   Partly Cloudy
12:00 PM 82.4 °F 89.5 °F 75.2 °F 79% 29.86 in 6.2 mi Calm Calm - N/A   Mostly Cloudy
1:00 PM 84.2 °F 94.1 °F 77.0 °F 79% 29.80 in 6.2 mi Calm Calm - N/A   Scattered Clouds
2:00 PM 86.0 °F 95.1 °F 75.2 °F 70% 29.77 in 6.2 mi North 4.6 mph - N/A   Scattered Clouds
3:00 PM 87.8 °F 97.6 °F 75.2 °F 66% 29.77 in 6.2 mi Calm Calm - N/A   Mostly Cloudy
4:00 PM 86.0 °F 95.1 °F 75.2 °F 70% 29.77 in 6.2 mi North 6.9 mph - N/A   Mostly Cloudy
5:00 PM 84.2 °F 92.3 °F 75.2 °F 74% 29.77 in 6.2 mi North 6.9 mph - N/A   Mostly Cloudy
6:00 PM 80.6 °F 86.2 °F 75.2 °F 84% 29.80 in 6.2 mi ENE 6.9 mph - N/A   Mostly Cloudy
7:00 PM 78.8 °F - 73.4 °F 83% 29.83 in 6.2 mi North 6.9 mph - N/A   Mostly Cloudy
7:34 PM - - - N/A% - 6.2 mi NNE 4.6 mph - N/A Rain Light Rain
8:00 PM 78.8 °F - 75.2 °F 89% 29.83 in 6.2 mi North 4.6 mph - N/A Rain Light Rain
9:00 PM 75.2 °F - 75.2 °F 100% 29.86 in 3.1 mi Calm Calm - N/A Rain , Thunderstorm Heavy Thunderstorms and Rain
10:00 PM 75.2 °F - 75.2 °F 100% 29.86 in 3.1 mi Calm Calm - N/A Rain , Thunderstorm Heavy Thunderstorms and Rain
11:00 PM 75.2 °F - 73.4 °F 94% 29.89 in 4.3 mi Calm Calm - N/A Rain Rain